Weather in Mogsokhon

Russia / Republic of Buryatia     51°53′08″N   110°19′29″E
temp.,
°C
wind,
m/s
gust,
m/s
humid.,
%
clouds,
%
prec.,
mm/h
press.,
hPa
HPBL,
m
28 february, sun
sun2823:00−25w128767 0.0 103620
02:00−27w129733 0.0 103819
05:00−28w129917 0.0 103819
08:00−29w129917 0.0 104120
11:00−21w368042 0.0 1039422
14:00−16wnw475825 0.0 10381468
17:00−17wnw357158 0.0 1038820
20:00−24wsw128439 0.0 104020
1 march, mon
mon123:00−26ssw11910 0.0 104120
02:00−26ssw129541 0.0 104120
05:00−28ssw11960 0.0 103919
08:00−27ene119434 0.0 103819
11:00−19ssw1180100 0.0 1033261
14:00−15sw237583 0.0 1028454
17:00−15wsw128557 0.0 1026258
20:00−22ese119432 0.0 102720
2 march, tue
tue223:00−23se11970 0.0 102520
02:00−22e119439 0.0 102320
05:00−23ene119285 0.0 102020
08:00−24ese009371 0.0 101920
11:00−16sw228190 0.0 1015267
14:00−11wsw257789 0.0 1010393
17:00−10w268528 0.0 1009339
20:00−15wsw229057 0.0 101225
3 march, wed
wed323:00−17wsw229565 0.0 101231
02:00−18wsw229964 0.0 101333
05:00−18wsw239886 0.0 101350
08:00−19w279779 0.0 1014182
11:00−12w7117617 0.0 10131030
14:00−11w711649 0.0 10131413
17:00−13wnw59673 0.0 10151076
20:00−21wnw35828 0.0 101965
4 march, thu
thu423:00−26nnw22824 0.0 102220
02:00−29nnw11849 0.0 102419
05:00−31nnw11880 0.0 102619
08:00−31n11880 0.0 102919
11:00−23w12740 0.0 1028402
14:00−20w34690 0.0 1029660
17:00−19w36760 0.0 1030777
20:00−26nw229133 0.0 103620